Home > Weather > Boston > Past weeks

Flag for USA Weather for the Past 2 Weeks in Boston, Massachusetts, USA

Now
47 °F

Mostly cloudy.


Feels Like: 40 °F
Forecast: 43 / 46 °F
Wind: 16 mph from Northeast

Location: Logan International Airport

Current Time: May 5, 2016 at 2:31:58 PM

Latest Report: May 5, 2016 at 1:54 PM


Visibility: 10 mi

Pressure: 29.76 "Hg

Humidity: 83%

Dew Point: 42 °F

Location of BostonLocation

Historic Weather in Boston — Graph

°F

Boston Temperature Yesterday

Maximum temperature yesterday: 49 °F (at 9:54 AM)
Minimum temperature yesterday: 44 °F (at 5:54 PM)
Average temperature yesterday: 46 °F

High & Low Weather Summary for the Past Weeks

 TemperatureHumidityPressure
High78 °F (Apr 22, 3:54 PM)97% (May 2, 12:54 PM)30.26 "Hg (May 2, 12:54 PM)
Low37 °F (Apr 26, 7:54 PM)13% (Apr 21, 3:54 PM)29.75 "Hg (Apr 26, 11:54 AM)
Average50 °F64%29.98 "Hg
* Reported Apr 20 1:54 PM — May 5 1:01 PM, Boston, Weather by CustomWeather, © 2016

Note: Actual official high and low records may vary slightly from our data, if they occured in-between our weather recording intervals... More about our weather records

Advertising

Boston Weather History for the Previous 24 Hours

Scroll right to see more
 ConditionsComfort  
Time TempWeatherWind HumidityBarometerVisibility
1:01 PM
Thu, May 5
46 °FMostly cloudy.18 mph87%29.77 "Hg9 mi
11:54 AM46 °FOvercast.20 mph86%29.78 "Hg10 mi
10:54 AM46 °FOvercast.17 mph86%29.79 "Hg10 mi
9:54 AM46 °FOvercast.21 mph89%29.78 "Hg10 mi
8:54 AM45 °FMostly cloudy.18 mph93%29.78 "Hg8 mi
7:54 AM45 °FOvercast.18 mph93%29.77 "Hg10 mi
6:54 AM44 °FFog.16 mph96%29.75 "Hg5 mi
5:54 AM44 °FLow clouds.16 mph93%29.75 "Hg8 mi
4:54 AM44 °FFog.15 mph93%29.75 "Hg5 mi
3:54 AM44 °FLow clouds.15 mph93%29.75 "Hg10 mi
1:54 AM44 °FLow clouds.20 mph93%29.77 "Hg8 mi
12:54 AM44 °FFog.14 mph93%29.79 "Hg3 mi
11:54 PM
Wed, May 4
44 °FLow clouds.15 mph93%29.79 "Hg10 mi
10:54 PM44 °FLight rain. Low clouds.13 mph93%29.80 "Hg10 mi
9:54 PM44 °FRain. Fog.18 mph93%29.83 "Hg4 mi
8:54 PM44 °FLight rain. Fog.15 mph93%29.83 "Hg5 mi
7:54 PM44 °FLight rain. Fog.13 mph89%29.82 "Hg5 mi
6:54 PM44 °FRain. Fog.17 mph89%29.83 "Hg4 mi
5:54 PM44 °FRain. Fog.21 mph85%29.81 "Hg4 mi
4:54 PM46 °FMostly cloudy.18 mph79%29.83 "Hg10 mi
3:54 PM47 °FMostly cloudy.15 mph80%29.83 "Hg10 mi
2:54 PM47 °FMostly cloudy.14 mph77%29.85 "Hg10 mi
Weather by CustomWeather, © 2016

See weather overviewHow to use our weather pages